{"data":{"norad_id":58379,"epoch":"2026-05-24T23:50:37.732128Z","epoch_age_seconds":85929,"freshness":"FRESH","line1":"1 58379U 23178F   26144.99349227  .00000750  00000+0  33346-4 0  9999","line2":"2 58379  53.1613   5.9595 0001078  95.1083 265.0043 15.34390741141584","mean_motion":15.34390741,"eccentricity":0.0001078,"inclination_deg":53.1613,"raan_deg":5.9595,"arg_perigee_deg":95.1083,"mean_anomaly_deg":265.0043,"bstar":3.3346e-5,"rev_number":14158,"period_min":93.848324388449,"perigee_km":461.9933145002,"apogee_km":463.46820558927,"semimajor_km":6840.8677600447,"source":"CELESTRAK","updated_at":"2026-05-25T13:38:18.612522Z"}}